This demonstration page uses our WeatherBlox Daily Observations layout. Learn more.

38.80484, -77.04692

Hourly Observations for May 28, 2019

Temp ( °F °C ) Dew Point ( °F °C ) Humidity (%) Winds ( mph kmh ) Pressure ( in mb ) Visibility ( mi km ) Precip ( " mm )
12:52 am 00:52 Mostly Cloudy 72 22.2 63 17.2 73 73 S 7 11 29.91 1013 10 16.09344 0 0
1:52 am 01:52 Mostly Cloudy 72 22.2 64 17.8 76 76 SSE 8 13 29.88 1012 10 16.09344 0 0
2:52 am 02:52 Mostly Cloudy 72 22.2 64 17.8 76 76 S 7 11 29.88 1012 10 16.09344 0 0
3:52 am 03:52 Cloudy 72 22.2 65 18.3 79 79 S 7 11 29.88 1012 10 16.09344 0 0
4:52 am 04:52 Cloudy 72 22.2 66 18.9 82 82 S 10 17 29.85 1011 10 16.09344 0 0
5:52 am 05:52 Cloudy 72 22.2 66 18.9 82 82 S 10 17 29.85 1011 10 16.09344 0 0
6:37 am 06:37 Cloudy 72 22.2 66 18.9 82 82 S 9 15 29.85 1011 10 16.09344 0 0
6:52 am 06:52 Cloudy 72 22.2 66 18.9 82 82 SSW 8 13 29.85 1011 10 16.09344 0 0
6:59 am 06:59 Cloudy with Rain 72 22.2 66 18.9 82 82 WSW 9 15 29.88 1012 4 6.437376 0.001 0.001
7:15 am 07:15 Cloudy with Rain 71 21.7 67 19.4 87 87 NW 13 20 29.88 1012 0.75 1.207008 0.03 0.762
7:17 am 07:17 Cloudy with Thunderstorms 71 21.7 67 19.4 87 87 NW 9 15 29.88 1012 0.5 0.804672 0.03 0.762
7:23 am 07:23 Cloudy with Heavy Thunderstorms 70 21.1 64 17.8 82 82 W 10 17 29.88 1012 3 4.828032 0.18 4.572
7:28 am 07:28 Cloudy with Light Thunderstorms 71 21.7 66 18.9 84 84 WSW 12 19 29.88 1012 6 9.656064 0.18 4.572
7:44 am 07:44 Cloudy 70 21.1 67 19.4 90 90 S 5 7 29.88 1012 10 16.09344 0.19 4.826
7:52 am 07:52 Cloudy 71 21.7 67 19.4 87 87 S 6 9 29.85 1011 10 16.09344 0.19 4.826
8:52 am 08:52 Cloudy 72 22.2 68 20 87 87 S 9 15 29.85 1011 10 16.09344 0 0
9:52 am 09:52 Cloudy with Light Rain 73 22.8 69 20.6 87 87 S 12 19 29.83 1010 10 16.09344 0.001 0.001
9:59 am 09:59 Mostly Cloudy 72 22.2 68 20 87 87 S 10 17 29.85 1011 10 16.09344 0.001 0.001
10:52 am 10:52 Cloudy 75 23.9 69 20.6 82 82 S 10 17 29.83 1010 10 16.09344 0.001 0.001
11:52 am 11:52 Mostly Cloudy 78 25.6 70 21.1 76 76 S 13 20 29.8 1009 10 16.09344 0 0
12:52 pm 12:52 Partly Cloudy 83 28.3 71 21.7 67 67 SSW 13 20 29.77 1008 10 16.09344 0 0
1:52 pm 13:52 Partly Cloudy 86 30 71 21.7 61 61 SSW 12 19 29.77 1008 10 16.09344 0 0
2:52 pm 14:52 Partly Cloudy 87 30.6 71 21.7 59 59 SSW 12 19 29.74 1007 10 16.09344 0 0
3:52 pm 15:52 Partly Cloudy 90 32.2 68 20 48 48 W 13 20 29.71 1006 10 16.09344 0 0
4:52 pm 16:52 Partly Cloudy 89 31.7 71 21.7 55 55 SW 14 22 29.71 1006 10 16.09344 0 0
5:52 pm 17:52 Partly Cloudy 89 31.7 70 21.1 53 53 SSW 13 20 29.68 1005 10 16.09344 0 0
6:52 pm 18:52 Partly Cloudy 88 31.1 71 21.7 57 57 SSW 12 19 29.68 1005 10 16.09344 0 0
7:52 pm 19:52 Mostly Cloudy 84 28.9 72 22.2 67 67 S 7 11 29.71 1006 10 16.09344 0 0
8:52 pm 20:52 Partly Cloudy 82 27.8 73 22.8 74 74 S 6 9 29.71 1006 10 16.09344 0 0
9:52 pm 21:52 Partly Cloudy 85 29.4 70 21.1 61 61 WSW 6 9 29.74 1007 10 16.09344 0 0
10:52 pm 22:52 Partly Cloudy 80 26.7 72 22.2 76 76 S 9 15 29.74 1007 10 16.09344 0 0
11:52 pm 23:52 Mostly Cloudy 79 26.1 71 21.7 77 77 S 6 9 29.74 1007 10 16.09344 0 0

Powered by AerisWeather